Tracking 31027 objects as of 19-Jul-2025
HD Live streaming from Space Station
objects crossing your sky now

ONEWEB-0699

Track ONEWEB-0699 now!
10-day predictions
ONEWEB-0699 is classified as:


NORAD ID: 61605
Int'l Code: 2024-188M
Perigee: 1,227.1 km
Apogee: 1,230.6 km
Inclination: 87.9 °
Period: 109.9 minutes
Semi major axis: 7599 km
RCS: Unknown
Launch date: October 20, 2024
Source: United States (US)
Launch site: AIR FORCE WESTERN TEST RANGE (AFWTR)
Your satellite tracking list
PRISMA
Track 1 satellite(s)




NASA's NSSDC Master Catalog

Two Line Element Set (TLE):
1 61605U 24188M   25199.45689326 -.00000695  00000-0 -20270-2 0  9995
2 61605  87.8814 102.8135 0002273  63.1383 296.9976 13.10373947 39608
Source of the keplerian elements: AFSPC